Stations météo

réclame
Mon MeteoGroup
Cap Corse, France (7785): Température de l'air & dewpoint: 18.01.2020 13:00:00 - 24.01.2020 13:00:00 (CET)Cap Corse, France (7785): Vitesse du vent & gusts: 18.01.2020 13:00:00 - 24.01.2020 13:00:00 (CET)Cap Corse, France (7785): Direction du vent: 18.01.2020 13:00:00 - 24.01.2020 13:00:00 (CET)Cap Corse, France (7785): reduced air pressure: 18.01.2020 13:00:00 - 24.01.2020 13:00:00 (CET)Cap Corse, France (7785): visibility: 18.01.2020 13:00:00 - 24.01.2020 13:00:00 (CET)Cap Corse, France (7785): Quantités de précipitations: 18.01.2020 13:00:00 - 24.01.2020 13:00:00 (CET)
Date & Time tt [°C] td [°C] ff [km/h] ff [knt] fx [km/h] fx [knt] dd ppp [hPa] vv [km] rr [mm]
24.01.2020 13:00:00 - - - - - - - - - -
24.01.2020 12:00:00 13,1 10,3 34 19 75 41 SE 1024,4 - 0,0
24.01.2020 11:00:00 13,5 10,5 29 16 64 35 SE 1024,2 - 0,0
24.01.2020 10:00:00 13,2 9,8 38 21 64 35 SE 1024,0 - 0,0
24.01.2020 09:00:00 13,0 8,9 36 20 58 32 SE 1024,0 - 0,0
24.01.2020 08:00:00 12,5 10,4 32 17 54 29 ESE 1024,4 13 0,0
24.01.2020 07:00:00 13,3 9,9 16 9 39 21 ESE 1024,5 13 0,0
24.01.2020 06:00:00 13,1 9,3 24 13 42 23 SE 1024,4 - 0,0
24.01.2020 05:00:00 13,4 8,9 33 18 54 29 SE 1024,5 - 0,0
24.01.2020 04:00:00 13,2 10,0 33 18 54 29 ESE 1024,7 13 0,0
24.01.2020 03:00:00 13,0 9,8 28 15 49 27 ESE 1025,3 - 0,0
24.01.2020 02:00:00 13,2 10,2 33 18 53 29 ESE 1025,5 - 0,0
24.01.2020 01:00:00 13,0 10,2 31 17 46 25 ESE 1026,1 - 0,0
24.01.2020 00:00:00 12,9 9,3 23 12 39 21 ESE 1026,5 - 0,0
23.01.2020 23:00:00 13,0 8,7 22 12 36 19 SE 1026,7 - 0,0
23.01.2020 22:00:00 13,5 8,3 26 14 51 28 SSE 1026,8 - 0,0
23.01.2020 21:00:00 13,7 7,7 39 21 56 31 SE 1026,4 - 0,0
23.01.2020 20:00:00 13,6 8,8 35 19 54 29 SE 1026,3 - 0,0
23.01.2020 19:00:00 13,5 7,9 35 19 55 30 SE 1026,6 - 0,0
23.01.2020 18:00:00 13,7 6,5 38 20 53 29 SE 1026,5 - 0,0
23.01.2020 17:00:00 13,6 8,0 28 15 66 36 ESE 1026,6 - 0,0
23.01.2020 16:00:00 13,5 9,3 27 15 55 30 ESE 1027,0 - 0,0
23.01.2020 15:00:00 13,4 10,9 33 18 55 30 ESE 1027,1 - 0,0
23.01.2020 14:00:00 13,5 10,8 33 18 51 27 ESE 1027,5 - 0,0
23.01.2020 13:00:00 13,6 10,9 22 12 63 34 ESE 1028,1 - 0,0
23.01.2020 12:00:00 13,6 10,6 23 13 58 31 ESE 1028,6 - 0,0
23.01.2020 11:00:00 13,8 10,6 29 16 58 32 ESE 1028,9 - 0,0
23.01.2020 10:00:00 14,0 9,8 23 13 48 26 ESE 1028,6 - 0,0
23.01.2020 09:00:00 13,2 9,4 32 17 55 30 ESE 1028,0 - 0,0
23.01.2020 08:00:00 12,9 8,2 29 16 66 35 SE 1027,6 - 0,0
23.01.2020 07:00:00 13,3 7,5 40 22 66 36 SE 1026,8 12 0,0
23.01.2020 06:00:00 13,5 7,7 36 19 69 38 SE 1026,7 - 0,0
23.01.2020 05:00:00 13,5 7,0 12 7 69 38 ESE 1026,5 - 0,0
23.01.2020 04:00:00 13,6 7,4 36 20 73 40 SE 1025,8 12 0,0
23.01.2020 03:00:00 13,6 8,4 37 20 84 46 SE 1025,8 - 0,0
23.01.2020 02:00:00 13,6 8,4 31 17 70 38 SE 1026,1 - 0,0
23.01.2020 01:00:00 14,0 7,3 42 23 72 39 SE 1026,8 - 0,0
23.01.2020 00:00:00 13,7 7,9 30 16 68 37 SE 1027,4 - 0,0
22.01.2020 23:00:00 14,4 7,0 43 23 81 44 SE 1026,8 - 0,0
22.01.2020 22:00:00 14,4 6,7 40 21 73 39 SSE 1026,8 - 0,0
22.01.2020 21:00:00 14,2 8,2 45 24 70 38 SE 1026,5 - 0,0
22.01.2020 20:00:00 14,1 9,1 41 22 74 40 SE 1026,7 - 0,0
22.01.2020 19:00:00 13,9 9,1 41 22 82 44 SE 1027,2 - 0,0
22.01.2020 18:00:00 14,1 9,9 51 28 91 49 SE 1027,3 - 0,0
22.01.2020 17:00:00 13,9 10,1 40 21 80 43 SE 1027,7 - 0,0
22.01.2020 16:00:00 14,4 10,4 51 28 - - SE 1027,9 - 0,0
22.01.2020 15:00:00 14,7 10,7 42 23 76 41 SE 1028,8 - 0,0
22.01.2020 14:00:00 14,5 11,3 44 24 77 42 ESE 1029,3 - 0,0
22.01.2020 13:00:00 13,7 11,2 37 20 66 35 ESE 1030,3 - 0,0
22.01.2020 12:00:00 13,7 11,0 34 18 - - ESE 1031,4 - 0,0
22.01.2020 11:00:00 13,5 11,0 35 19 - - ESE 1032,0 - 0,0
22.01.2020 10:00:00 13,0 10,5 - - - - - 1031,8 - 0,0
22.01.2020 09:00:00 12,8 10,3 51 28 87 47 ESE 1031,5 - 0,0
22.01.2020 08:00:00 12,8 10,3 50 27 84 45 SE 1031,5 - 0,0
22.01.2020 07:00:00 12,8 10,3 44 24 75 41 SE 1031,6 13 0,0
22.01.2020 06:00:00 12,6 9,8 43 23 73 40 ESE 1031,7 - 0,0
22.01.2020 05:00:00 12,5 8,8 45 25 76 41 ESE 1032,2 - 0,0
22.01.2020 04:00:00 12,4 8,5 47 26 69 37 ESE 1032,6 13 0,0
22.01.2020 03:00:00 12,5 8,4 36 19 65 35 ESE 1033,4 - 0,0
22.01.2020 02:00:00 12,6 8,1 38 21 65 35 ESE 1033,7 - 0,0
22.01.2020 01:00:00 12,6 7,5 37 20 74 40 E 1034,0 - 0,0
22.01.2020 00:00:00 12,7 6,9 31 17 49 26 E 1035,2 - 0,0
21.01.2020 23:00:00 12,4 6,7 22 12 39 21 E 1035,1 - 0,0
21.01.2020 22:00:00 12,5 6,5 26 14 71 38 E 1035,1 - 0,0
21.01.2020 21:00:00 12,5 7,0 31 17 59 32 E 1034,6 - 0,0
21.01.2020 20:00:00 12,5 6,7 34 18 56 31 E 1035,2 - 0,0
21.01.2020 19:00:00 12,4 6,9 38 20 56 31 E 1034,8 - 0,0
21.01.2020 18:00:00 12,3 6,6 36 19 54 29 E 1034,9 - 0,0
21.01.2020 17:00:00 12,0 6,3 35 19 54 29 E 1035,0 - 0,0
21.01.2020 16:00:00 11,7 5,8 34 18 52 28 E 1035,3 - 0,0
21.01.2020 15:00:00 11,7 6,2 34 18 53 28 E 1035,8 - 0,0
21.01.2020 14:00:00 11,7 5,6 29 15 51 28 E 1036,3 - 0,0
21.01.2020 13:00:00 11,6 5,2 30 16 56 31 E 1036,9 15 0,0
21.01.2020 12:00:00 11,7 4,7 22 12 62 33 ESE 1037,5 - 0,0
21.01.2020 11:00:00 11,1 5,2 31 17 50 27 E 1037,9 - 0,0
21.01.2020 10:00:00 10,4 4,5 31 17 53 29 E 1038,3 - 0,0
21.01.2020 09:00:00 10,0 4,1 37 20 64 34 E 1038,0 - 0,0
21.01.2020 08:00:00 9,8 4,6 41 22 62 34 E 1038,1 - 0,0
21.01.2020 07:00:00 9,6 3,8 42 23 69 38 E 1037,7 - 0,0
21.01.2020 06:00:00 9,7 4,3 51 28 72 39 E 1037,6 - 0,0
21.01.2020 05:00:00 9,8 4,0 44 24 75 40 E 1037,8 - 0,0
21.01.2020 04:00:00 10,0 4,6 50 27 71 38 E 1037,8 15 0,0
21.01.2020 03:00:00 10,0 3,7 49 27 74 40 E 1038,0 - 0,0
21.01.2020 02:00:00 10,2 3,9 49 27 67 36 E 1038,0 - 0,0
21.01.2020 01:00:00 9,9 4,1 44 24 76 41 E 1038,3 - 0,0
21.01.2020 00:00:00 9,9 4,3 45 24 71 38 E 1038,2 - 0,0
20.01.2020 23:00:00 9,8 3,7 47 25 76 41 E 1038,0 - 0,0
20.01.2020 22:00:00 9,8 3,3 50 27 79 42 E 1037,7 - 0,0
20.01.2020 21:00:00 9,8 4,2 55 30 84 46 E 1037,5 - 0,0
20.01.2020 20:00:00 9,9 2,7 56 30 84 46 E 1037,2 - 0,0
20.01.2020 19:00:00 10,1 3,1 58 31 85 46 E 1036,3 - 0,0
20.01.2020 18:00:00 10,6 4,1 59 32 80 43 E 1035,6 - 0,0
20.01.2020 17:00:00 10,5 2,6 56 30 77 42 E 1035,1 - 0,0
20.01.2020 16:00:00 10,6 1,9 47 26 73 39 E 1035,1 15 0,0
20.01.2020 15:00:00 10,6 2,2 49 26 77 41 E 1035,1 - 0,0
20.01.2020 14:00:00 10,5 2,8 53 29 76 41 E 1035,0 - 0,0
20.01.2020 13:00:00 10,3 2,1 50 27 77 42 E 1035,2 - 0,0
20.01.2020 12:00:00 10,4 3,4 49 26 81 44 E 1035,2 - 0,0
20.01.2020 11:00:00 9,9 2,0 54 29 89 48 E 1035,2 - 0,0
20.01.2020 10:00:00 9,8 2,2 63 34 89 48 E 1033,7 15 0,0
20.01.2020 09:00:00 9,7 1,6 67 36 100 54 E 1033,4 - 0,0
20.01.2020 08:00:00 9,7 1,6 61 33 94 51 E 1032,6 - 0,0
20.01.2020 07:00:00 10,0 1,9 61 33 91 49 E 1031,9 - 0,0
20.01.2020 06:00:00 10,1 2,4 56 30 95 52 E 1030,9 - 0,0
20.01.2020 05:00:00 10,1 1,2 66 35 93 50 E 1030,5 - 0,0
20.01.2020 04:00:00 10,3 2,9 61 33 87 47 E 1030,1 15 0,0
20.01.2020 03:00:00 10,3 2,1 63 34 90 48 E 1029,7 - 0,0
20.01.2020 02:00:00 10,5 1,6 66 35 99 54 E 1029,0 - 0,0
20.01.2020 01:00:00 10,6 2,7 61 33 92 50 E 1028,5 - 0,0
20.01.2020 00:00:00 10,1 2,4 61 33 89 48 E 1028,7 - 0,0
19.01.2020 23:00:00 10,6 1,9 59 32 90 49 E 1028,2 - 0,0
19.01.2020 22:00:00 10,7 3,0 57 31 82 44 E 1027,7 - 0,0
19.01.2020 21:00:00 10,8 3,3 56 31 84 46 E 1027,1 - 0,0
19.01.2020 20:00:00 11,0 4,2 55 30 80 43 E 1025,9 - 0,0
19.01.2020 19:00:00 11,0 4,9 50 27 73 39 E 1026,0 15 0,0
19.01.2020 18:00:00 11,1 5,2 44 24 67 36 E 1025,9 - 0,0
19.01.2020 17:00:00 11,6 5,5 40 22 61 33 E 1024,9 - 0,0
19.01.2020 16:00:00 11,4 4,8 36 20 55 30 E 1024,6 15 0,0
19.01.2020 15:00:00 11,2 4,9 35 19 54 29 E 1023,9 - 0,0
19.01.2020 14:00:00 10,7 5,0 32 18 52 28 E 1024,0 - 0,0
19.01.2020 13:00:00 11,1 5,4 33 18 55 30 E 1023,8 - 0,0
19.01.2020 12:00:00 10,9 5,6 39 21 60 33 E 1024,0 - 0,0
19.01.2020 11:00:00 10,5 5,3 39 21 56 30 E 1024,3 - 0,0
19.01.2020 10:00:00 10,6 5,4 34 18 55 30 E 1023,8 15 0,0
19.01.2020 09:00:00 10,4 5,0 35 19 52 28 E 1023,2 - 0,0
19.01.2020 08:00:00 10,1 5,7 33 18 47 25 E 1023,1 - 0,0
19.01.2020 07:00:00 9,6 5,8 19 10 32 17 E 1023,0 15 0,0
19.01.2020 06:00:00 9,4 6,1 10 5 17 9 E 1022,7 - 0,0
19.01.2020 05:00:00 10,0 5,8 8 5 29 16 S 1022,6 - 0,0
19.01.2020 04:00:00 9,6 5,8 22 12 30 16 SSW 1022,7 12 0,0
19.01.2020 03:00:00 10,3 6,3 20 11 39 21 SW 1022,9 - 0,0
19.01.2020 02:00:00 10,8 6,5 20 11 40 21 WSW 1022,7 - 0,0
19.01.2020 01:00:00 11,0 5,5 30 16 46 25 W 1022,8 - 0,0
19.01.2020 00:00:00 10,9 5,8 31 17 52 28 W 1022,7 - 0,0
18.01.2020 23:00:00 11,3 5,8 36 19 55 30 W 1022,7 - 0,0
18.01.2020 22:00:00 11,4 6,1 43 23 53 29 W 1022,5 - 0,0
18.01.2020 21:00:00 11,2 5,7 40 21 55 30 W 1022,2 - 0,0
18.01.2020 20:00:00 11,2 5,9 43 23 61 33 W 1022,2 - 0,0
18.01.2020 19:00:00 11,3 6,0 45 25 65 35 W 1022,3 - 0,0
18.01.2020 18:00:00 11,5 6,2 50 27 69 37 W 1021,9 - 0,0
18.01.2020 17:00:00 11,5 6,6 51 28 66 36 W 1021,4 - 0,0
18.01.2020 16:00:00 11,7 6,8 50 27 65 35 W 1021,5 15 0,0
18.01.2020 15:00:00 12,4 6,9 47 25 64 35 W 1021,3 - 0,0
18.01.2020 14:00:00 12,8 6,8 46 25 72 39 W 1021,3 - 0,0
18.01.2020 13:00:00 12,2 7,3 56 30 83 45 W 1021,6 15 0,0

tt = Température de l'air
td = dewpoint
ff = Vitesse du vent
fx = gusts
dd = Direction du vent
ppp = reduced air pressure
vv = visibility
rr = Quantités de précipitations

stations d'obs. à proximité